San Francisco, CA

7:36 AM PST on February 23, 2017 (GMT -0800)
San Francisco International

Weather History for KSFO - June, 2013

Change the Weather History Date:

Friday, June 14, 2013

  Actual Average Record
Temperature  
Mean Temperature 65 °F 62 °F  
Max Temperature 78 °F 71 °F 106 °F (1961)
Min Temperature 52 °F 54 °F 49 °F (1982)
Degree Days  
Heating Degree Days 0 4  
Month to date heating degree days 41 56  
Since 1 June heating degree days 41 56  
Since 1 July heating degree days 2592 2604  
Cooling Degree Days 0 1  
Month to date cooling degree days 2 11  
Year to date cooling degree days 29 30  
Since 1 June cooling degree days 2 11  
Growing Degree Days 15 (Base 50)    
Moisture  
Dew Point 47 °F    
Average Humidity 57    
Maximum Humidity 77    
Minimum Humidity 36    
Precipitation  
Precipitation 0.00 in 0.00 in 0.06 in (1995)
Month to date precipitation 0.00 0.08  
Year to date precipitation 1.84 13.05  
Since 1 July precipitation 12.84  
Sea Level Pressure  
Sea Level Pressure 29.92 in    
Wind  
Wind Speed 11 mph (WNW)    
Max Wind Speed 28 mph    
Max Gust Speed 33 mph    
Visibility 10 miles    
Events      
T = Trace of Precipitation, MM = Missing Value Source: NWS Daily Summary

Daily Weather History Graph

Daily Weather History Graph

Search for Another Location

Airport or City:

Trip Planner

Search our weather history database for the weather conditions in past years. The results will help you decide how hot, cold, wet, or windy it might be!

Date:

Astronomy

Jun. 14, 2013 Rise Set
Actual Time 5:47 AM PDT 8:32 PM PDT
Civil Twilight 5:16 AM PDT 9:03 PM PDT
Nautical Twilight 4:37 AM PDT 9:42 PM PDT
Astronomical Twilight 3:53 AM PDT 10:26 PM PDT
Moon 11:22 AM PDT (6/14) No Moon Set
Length of Visible Light 15h 47m
Length of Day
14h 44m
Waxing Crescent, 31% of the Moon is Illuminated
Jun 14
Waxing Crescent
Jun 16
First Quarter
Jun 23
Full
Jun 29
Last Quarter
Jul 8
New

Hourly Weather History & Observations

Time (PDT) Temp. Dew Point Humidity Pressure Visibility Wind Dir Wind Speed Gust Speed Precip Events Conditions
12:56 AM 54.0 °F 46.0 °F 75% 30.00 in 10.0 mi West 10.4 mph - N/A   Partly Cloudy
1:56 AM 53.1 °F 46.0 °F 77% 29.98 in 10.0 mi West 10.4 mph - N/A   Partly Cloudy
2:56 AM 53.1 °F 46.0 °F 77% 29.98 in 10.0 mi WNW 6.9 mph - N/A   Partly Cloudy
3:56 AM 53.1 °F 46.0 °F 77% 29.95 in 10.0 mi WSW 3.5 mph - N/A   Partly Cloudy
4:56 AM 53.1 °F 45.0 °F 74% 29.95 in 10.0 mi Calm Calm - N/A   Scattered Clouds
5:56 AM 52.0 °F 45.0 °F 77% 29.96 in 10.0 mi West 5.8 mph - N/A   Scattered Clouds
6:56 AM 55.9 °F 46.9 °F 72% 29.96 in 10.0 mi Calm Calm - N/A   Scattered Clouds
7:56 AM 61.0 °F 48.0 °F 62% 29.95 in 10.0 mi Calm Calm - N/A   Partly Cloudy
8:56 AM 62.1 °F 51.1 °F 67% 29.95 in 10.0 mi ENE 3.5 mph - N/A   Partly Cloudy
9:56 AM 64.9 °F 53.1 °F 65% 29.95 in 10.0 mi Calm Calm - N/A   Partly Cloudy
10:56 AM 69.1 °F 54.0 °F 58% 29.94 in 10.0 mi East 3.5 mph - N/A   Partly Cloudy
11:56 AM 77.0 °F 48.9 °F 37% 29.93 in 10.0 mi WNW 8.1 mph - N/A   Scattered Clouds
12:56 PM 75.9 °F 46.9 °F 36% 29.92 in 10.0 mi WNW 15.0 mph - N/A   Scattered Clouds
1:56 PM 73.0 °F 46.9 °F 39% 29.91 in 10.0 mi WNW 20.7 mph - N/A   Scattered Clouds
2:56 PM 71.1 °F 46.0 °F 41% 29.90 in 10.0 mi WNW 23.0 mph - N/A   Scattered Clouds
3:56 PM 68.0 °F 46.0 °F 45% 29.89 in 10.0 mi West 26.5 mph - N/A   Scattered Clouds
4:56 PM 66.0 °F 46.0 °F 48% 29.88 in 10.0 mi West 24.2 mph 33.4 mph N/A   Scattered Clouds
5:56 PM 64.0 °F 46.0 °F 52% 29.86 in 10.0 mi WNW 20.7 mph - N/A   Scattered Clouds
6:56 PM 60.1 °F 46.9 °F 62% 29.86 in 10.0 mi West 16.1 mph - N/A   Scattered Clouds
7:56 PM 57.0 °F 46.9 °F 69% 29.87 in 10.0 mi West 20.7 mph - N/A   Scattered Clouds
8:46 PM 55.4 °F 46.4 °F 72% 29.87 in 10.0 mi WNW 17.3 mph - N/A   Partly Cloudy
8:56 PM 55.0 °F 46.9 °F 74% 29.87 in 10.0 mi WNW 16.1 mph - N/A   Partly Cloudy
9:56 PM 54.0 °F 46.9 °F 77% 29.88 in 10.0 mi WNW 16.1 mph - N/A   Partly Cloudy
10:56 PM 53.1 °F 46.9 °F 80% 29.88 in 10.0 mi West 13.8 mph - N/A   Partly Cloudy
11:56 PM 53.1 °F 46.9 °F 80% 29.88 in 10.0 mi West 11.5 mph - N/A   Partly Cloudy